Location: ??
(35.4627°N, 139.3695°E)
Time: 05:28:32
(UTC+00:00)

USA 234 - Pass Details

Date: 25 November 2020
Orbit: 1098 x 1110 km, 123.0° (Epoch: 17 January)

Event Time Altitude Azimuth Distance (km) Brightness Sun altitude
Rises 19:36:55 0° 45° (NE) 3,936 6.6 -22.4°
Reaches altitude 10° 19:39:26 10° 47° (NE) 2,975 6.0 -21.9°
Maximum altitude 19:46:00 72° 132° (SE) 1,159 3.5 -20.6°
Drops below altitude 10° 19:52:31 10° 216° (SW) 2,957 5.3 -19.3°
Sets 19:55:00 0° 219° (SW) 3,911 5.9 -18.8°
